Regional Weather Roundup
Issued by NWS

Home | Current Version | Previous Version | Text Only | Print | Product List | Glossary Off
Versions: 1 2 3 4 5 6 7 8 9 10 11 12 13 14 15 16 17 18 19 20 21 22 23 24 25 26 27 28 29 30 31 32 33 34 35 36 37 38 39 40 41 42 43 44 45 46 47 48 49 50

000
ASUS45 KTFX 010319
RWRMT
MONTANA HOURLY WEATHER ROUNDUP
NATIONAL WEATHER SERVICE GREAT FALLS MT
819 PM MST SAT JAN 31 2015

NOTE: "FAIR" INDICATES FEW OR NO CLOUDS BELOW 12000 FEET WITH NO
SIGNIFICANT WEATHER AND/OR OBSTRUCTIONS TO VISIBILITY.

* THESE STATIONS ARE NOT UNDER NWS QUALITY CONTROL. THEY DO NOT
   REPORT WEATHER SUCH AS PRECIPITATION OR FOG.

MTZ001>007-043-010400-
WEST OF THE DIVIDE
CITY           SKY/WX    TMP DP  RH WIND       PRES   REMARKS
KALISPELL      CLOUDY    27  16  63 N7        30.23S WCI  19
MISSOULA       PTCLDY    32  25  75 NW10      30.19S WCI  24
BUTTE          PTCLDY    21  16  81 N3        30.12R
MULLAN PASS    CLOUDY    23  18  81 CALM      30.11R
* ANACONDA     PTCLDY    18  14  84 N/A        N/A
* ESSEX        N/A       18   7  62 SE9G17     N/A   WCI   7
* EUREKA APT   PTCLDY    28  25  89 CALM      30.26R
* HAMILTON APT PTCLDY    32  23  69 S2        30.16R
* LIBBY APT    MOCLDY    30  28  92 CALM      30.25R
* LINCOLN      N/A       14   5  67 NE6G12     N/A   WCI   5
* LOOKOUT PASS N/A       24  24 100 VRB4       N/A
* POLSON       N/A       26  25  96 N/A        N/A
* RONAN APT    PTCLDY    28  28 100 N/A        N/A
* SEELEY LAKE  N/A       26  17  69 N/A        N/A
* THOMP F APT  CLOUDY    17  15  92 NE1        N/A
$$

MTZ008-052>055-010400-
SOUTHWEST MONTANA
CITY           SKY/WX    TMP DP  RH WIND       PRES   REMARKS
BOZEMAN        CLOUDY    19  12  74 CALM      30.20R
DILLON         CLEAR     19  12  74 NE13      30.11R WCI   6
* W YELLOWSTON PTCLDY    19  16  88 SW4G12     N/A
* THREE FORKS  CLEAR     18  14  84 N/A        N/A
* BOULDER HILL N/A       10   6  84 VRB11G16    N/A   WCI  -4
* MONIDA PASS  N/A       21   9  60 W8G13      N/A   WCI  11
* RAYNOLDS PAS N/A       19  18  96 N12        N/A   WCI   6
* WHITEHALL    N/A       20   8  59 NE5G12     N/A   WCI  13
* WISE RIVER   N/A       26  12  55 NE1G10     N/A
$$

MTZ009>010-012-014-046-048-049-054-010400-
EAST SLOPES AND CENTRAL MONTANA
CITY           SKY/WX    TMP DP  RH WIND       PRES   REMARKS
CUT BANK       PTCLDY     1  -2  87 N5        30.32S WCI  -9
GREAT FALLS    CLOUDY     9   5  84 CALM      30.33R
HELENA         CLOUDY    18   9  68 N8        30.27S WCI   8
MALMSTROM AFB  LGT SNOW   9   5  84 NW3       30.36R
* CONRAD       PTCLDY     9   1  70 CALM       N/A
* DEARBORN     N/A       13   8  80 VRB3G9     N/A
* EAST GLACIER N/A        4   2  91 E1         N/A
* MONARCH      N/A        4  -1  79 NW4        N/A
* PENDROY      N/A        7   3  83 VRB8       N/A   WCI  -6
* ROGERS PASS  N/A        7   3  83 SE1        N/A
* SWEET GRASS  N/A        2  -1  87 N5         N/A   WCI  -8
* WHITE SULPH  N/A       10   2  70 NW10G15    N/A   WCI  -4
$$

MTZ011-013-016-021-035-040-045-047-050-051-010400-
NORTH CENTRAL MONTANA
CITY           SKY/WX    TMP DP  RH WIND       PRES   REMARKS
HAVRE          LGT SNOW   9   3  76 NE7       30.42S WCI  -2
LEWISTOWN      CLOUDY     9   5  84 W7        30.26S WCI  -2
* N BAR RANCH  CLOUDY     9   3  76 NW15      30.22S WCI  -8
* CHINOOK      CLOUDY     7   3  83 NE5       30.45S VSB 1 1/2 WCI  -2
* CHESTER      N/A        6  -1  73 NE4        N/A
* DENTON       N/A        9   6  87 NW5        N/A
* GEYSER       N/A        7   4  87 W17G23     N/A   WCI -11
* JUDITH GAP   N/A        7   5  91 NW14G20    N/A   WCI -10
* LOMA         N/A        9   5  84 NW6        N/A   WCI  -1
$$

MTZ017>020-022>027-061-062-010400-
NORTHEAST MONTANA
CITY           SKY/WX    TMP DP  RH WIND       PRES   REMARKS
GLASGOW        LGT SNOW   7   0  73 NE8       30.42R VSB 1 3/4 WCI  -6
GLENDIVE       PTCLDY     3  -2  79 NE15      30.33R WCI -16
JORDAN         CLOUDY     9   3  76 NE12      30.35R WCI  -6
SIDNEY         CLOUDY     1  -2  87 N13       30.44R VSB 1 3/4 WCI -17
WOLF POINT     LGT SNOW   7  -2  66 NE14      30.45R VSB 3    WCI -10
* BEAVER HILL  N/A        4   1  87 NE11       N/A   WCI -12
* CIRCLE       N/A        4   1  87 NE12       N/A   WCI -12
* LINDSAY DVD  N/A        1  -2  87 N8         N/A   WCI -13
* NAVAJO       N/A       -1  -5  83 NE11       N/A   WCI -18
* PLENTYWOOD A PTCLDY     0  -8  68 N10       30.43S WCI -16
* POPLAR APT   MOCLDY     1  -4  79 N/A       30.45R
* SACO         N/A        5   0  80 VRB8       N/A   WCI  -8
$$

MTZ028>042-056>058-010400-
SOUTHCENTRAL AND SOUTHEAST MONTANA
CITY           SKY/WX    TMP DP  RH WIND       PRES   REMARKS
BAKER          LGT SNOW   7   1  76 E13       30.24R VSB 2    WCI  -9
LIVINGSTON     LGT SNOW  19   9  65 NW5       30.19R WCI  12
MILES CITY     LGT SNOW  10   7  88 N14       30.29R WCI  -6
* BIG TIMBER A CLOUDY    16  10  77 NE3       30.21S VSB 3
* FORSYTH APT  PTCLDY    10   7  88 N9        30.32R WCI  -3
* LAUREL APT   MOCLDY    18   7  62 N9         N/A   WCI   7
* ROUNDUP APT  MOCLDY    10   3  73 NE7        N/A   WCI  -1
* ALZADA       N/A       18  16  92 NE6        N/A   WCI  10
* HYSHAM       N/A       11   6  80 VRB5G12    N/A   WCI   2
* LAME DEER    N/A       10   7  88 NW9G17     N/A   WCI  -3
* REED POINT   N/A       19  16  88 SE1        N/A
* ROSCOE HILL  N/A       14  10  84 NW4        N/A
$$

REGIONAL REPORTS...DAKOTAS
CITY           SKY/WX    TMP DP  RH WIND       PRES   REMARKS
WILLISTON      LGT SNOW   0  -8  68 NE10      30.45R WCI -16
DICKINSON      LGT SNOW   0  -6  75 NE14      30.27R VSB 1 1/2 WCI -19
BEACH          LGT SNOW   3   0  87 NE12G17   30.29R WCI -14
CROSBY         CLEAR     -4 -13  65 E7        30.48S WCI -18
TIOGA          CLEAR     -6 -11  78 NE10      30.44S WCI -23
WATFORD CITY   LGT SNOW   0  -6  75 NE12      30.40R VSB 2 1/2 WCI -17
BISMARCK       LGT SNOW   0  -6  75 NE18      30.39R VSB 1 1/2 WCI -21
GRAND FORKS    PTCLDY    -6 -15  64 N16       30.51S WCI -28
FARGO          CLOUDY     1  -9  62 N22       30.40S WCI -22
BUFFALO SD     MOCLDY    10   7  88 NE18      30.10R WCI  -8
RAPID CITY     LGT SNOW  18  16  92 NE13      30.09R VSB 1    WCI   5
$$

REGIONAL REPORTS...WYOMING/IDAHO/WASHINGTON
CITY           SKY/WX    TMP DP  RH WIND       PRES   REMARKS
GILLETTE       CLOUDY    21  18  88 NW26G31   30.06R WCI   4
SHERIDAN       CLOUDY    19  12  74 NW24G33   30.17R WCI   2
CODY           CLOUDY    19  16  88 N15G23    30.11R WCI   5
YELLOWSTONE LA PTCLDY    10   7  88 W6        30.05R
SALMON         CLOUDY    19  16  88 CALM      30.20F
MULLAN PASS    CLOUDY    23  18  81 CALM      30.11S
SAND POINT     CLOUDY    32  30  92 CALM      30.28S
SPOKANE        CLOUDY    32  28  85 CALM      30.27F
$$

REGIONAL REPORTS...ALBERTA
CITY           SKY/WX    TMP DP  RH WIND       PRES   REMARKS
CALGARY        FAIR       3  -2  79 S9        30.29F WCI -11
LETHBRIDGE     N/A       -8 -13  78 S8        30.39S WCI -24
MEDICINE HAT   PTCLDY     1   0  95 E6        30.46F WCI -11
EDMONTON       LGT SNOW   5  -2  72 SE6       30.39F WCI  -6
WATERTON GATE  N/A       -6 -11  78 NE2        N/A
CARDSTON       N/A        0  -2  91 W1         N/A
MILK RIVER     N/A       -6  -9  87 W1         N/A
$$

REGIONAL REPORTS...SASKATCHEWAN
CITY           SKY/WX    TMP DP  RH WIND       PRES   REMARKS
SWIFT CURRENT  CLOUDY    -4  -8  83 SE3       30.41S
REGINA         PTCLDY    -6 -13  71 NE3       30.51F
VAL MARIE      N/A        1  -2  87 N6         N/A   WCI -11
ASSINIBOIA     N/A       -2  -8  75 NE7        N/A   WCI -15
CORONACH       N/A       -2  -8  75 N10        N/A   WCI -18

$$




USA.gov is the U.S. government's official web portal to all federal, state and local government web resources and services.